[TLELIST] Archives

 

Current TLEs

June 4th 2007 PDT

HST 1 20580U 90037B 07154.57006371 .00000358 00000-0 14907-4 0 8888 2 20580 028.4689 278.9158 0003494 310.9000 049.1286 15.00246303737918 ISS (ZARYA) 1 25544U 98067A 07155.47279512 .00010341 00000-0 62916-4 0 3299 2 25544 051.6330 169.6098 0007682 277.6902 233.5512 15.78150132488762 CXO 1 25867U 99040B 07154.45833333 .00000466 00000-0 00000+0 0 759 2 25867 061.7946 089.6360 6211185 284.2574 001.4821 00.37804628 2209 ____________________________________________________________________ These 2-Line ...Continue Reading

Current TLEs

June 3rd 2007 PDT

HST 1 20580U 90037B 07152.70736259 .00000408 00000-0 18876-4 0 8870 2 20580 028.4691 291.0614 0003581 288.6724 071.3476 15.00245941737639 ISS (ZARYA) 1 25544U 98067A 07154.46106237 .00009945 00000-0 60723-4 0 3247 2 25544 051.6334 174.8394 0007591 274.2211 245.1662 15.78126503488601 CXO 1 25867U 99040B 07154.45833333 .00000466 00000-0 00000+0 0 759 2 25867 061.7946 089.6360 6211185 284.2574 001.4821 00.37804628 2209 ____________________________________________________________________ These 2-Line ...Continue Reading

Current TLEs

June 2nd 2007 PDT

HST 1 20580U 90037B 07152.70736259 .00000408 00000-0 18876-4 0 8870 2 20580 028.4691 291.0614 0003581 288.6724 071.3476 15.00245941737639 ISS (ZARYA) 1 25544U 98067A 07153.44456663 .00009063 00000-0 55748-4 0 3191 2 25544 051.6331 180.0930 0007730 269.4646 231.0751 15.78102541488447 CXO 1 25867U 99040B 07151.75000000 .00000447 00000-0 00000+0 0 744 2 25867 061.7828 089.6850 6205507 284.3104 352.7628 00.37804329 2196 ____________________________________________________________________ These 2-Line ...Continue Reading

Current TLEs

June 1st 2007 PDT

HST 1 20580U 90037B 07150.77813779 .00000477 00000-0 24232-4 0 8866 2 20580 028.4691 303.6406 0003578 269.6384 090.3794 15.00245448737349 ISS (ZARYA) 1 25544U 98067A 07152.46998731 .00000018 00000-0 10162-6 0 3137 2 25544 051.6327 185.1300 0007679 266.9118 093.1544 15.78072133488290 CXO 1 25867U 99040B 07151.75000000 .00000447 00000-0 00000+0 0 744 2 25867 061.7828 089.6850 6205507 284.3104 352.7628 00.37804329 2196 ____________________________________________________________________ These 2-Line ...Continue Reading

Current TLEs

May 31st 2007 PDT

HST 1 20580U 90037B 07150.77813779 .00000477 00000-0 24232-4 0 8866 2 20580 028.4691 303.6406 0003578 269.6384 090.3794 15.00245448737349 ISS (ZARYA) 1 25544U 98067A 07151.48104301 -.00005087 00000-0 -25259-4 0 3077 2 25544 051.6348 190.2394 0007622 253.0214 245.0236 15.78076289488130 CXO 1 25867U 99040B 07151.75000000 .00000447 00000-0 00000+0 0 744 2 25867 061.7828 089.6850 6205507 284.3104 352.7628 00.37804329 2196 ____________________________________________________________________ These 2-Line ...Continue Reading

Current TLEs

May 30th 2007 PDT

HST 1 20580U 90037B 07148.84891501 +.00000528 +00000-0 +28213-4 0 08949 2 20580 028.4678 316.2355 0003834 251.0981 108.9192 15.00244383737053 ISS (ZARYA) 1 25544U 98067A 07150.46867409 .00012681 00000-0 76376-4 0 3004 2 25544 051.6338 195.4641 0007682 253.2743 249.5397 15.78113675487975 CXO 1 25867U 99040B 07149.12500000 .00000425 00000-0 00000+0 0 732 2 25867 061.7694 089.7207 6200411 284.3770 355.3545 00.37804734 2188 ____________________________________________________________________ These 2-Line ...Continue Reading

Current TLEs

May 29th 2007 PDT

HST 1 20580U 90037B 07147.91756493 +.00000532 +00000-0 +28502-4 0 08986 2 20580 028.4677 322.3077 0003855 241.5574 118.4628 15.00243718736911 ISS (ZARYA) 1 25544U 98067A 07149.12999271 .00017267 00000-0 10260-3 0 2955 2 25544 051.6336 202.3796 0007902 250.6486 201.8108 15.78095383487765 CXO 1 25867U 99040B 07149.12500000 .00000425 00000-0 00000+0 0 732 2 25867 061.7694 089.7207 6200411 284.3770 355.3545 00.37804734 2188 ____________________________________________________________________ These 2-Line ...Continue Reading

Current TLEs

May 28th 2007 PDT

HST 1 20580U 90037B 07147.91756493 .00000532 00000-0 28502-4 0 8841 2 20580 028.4677 322.3077 0003855 241.5574 118.4628 15.00243718736911 ISS (ZARYA) 1 25544U 98067A 07148.50547605 .00015911 00000-0 94973-4 0 2910 2 25544 051.6339 205.6097 0007836 249.1660 252.9466 15.78069729487669 CXO 1 25867U 99040B 07149.12500000 .00000425 00000-0 00000+0 0 732 2 25867 061.7694 089.7207 6200411 284.3770 355.3545 00.37804734 2188 ____________________________________________________________________ These 2-Line ...Continue Reading

Current TLEs

May 27th 2007 PDT

HST 1 20580U 90037B 07146.85316448 .00000505 00000-0 26379-4 0 8834 2 20580 028.4678 329.2478 0003957 230.9275 129.0963 15.00242785736751 ISS (ZARYA) 1 25544U 98067A 07147.48981565 .00017145 00000-0 10216-3 0 2854 2 25544 051.6332 210.8567 0007859 245.2500 243.0026 15.78039141487508 CXO 1 25867U 99040B 07146.50000000 .00000398 00000-0 00000+0 0 724 2 25867 061.7551 089.7587 6196821 284.4425 357.9294 00.37805361 2173 ____________________________________________________________________ These 2-Line ...Continue Reading

Current TLEs

May 26th 2007 PDT

HST 1 20580U 90037B 07144.92393848 +.00000449 +00000-0 +22015-4 0 08873 2 20580 028.4679 341.8253 0003975 211.3870 148.6493 15.00241143736467 ISS (ZARYA) 1 25544U 98067A 07146.48826389 .00020658 00000-0 12240-3 0 2789 2 25544 051.6329 216.0320 0008068 240.2690 314.4431 15.78007740487342 CXO 1 25867U 99040B 07146.50000000 .00000398 00000-0 00000+0 0 724 2 25867 061.7551 089.7587 6196821 284.4425 357.9294 00.37805361 2173 ____________________________________________________________________ These 2-Line ...Continue Reading
  • This mailing list is a public mailing list - anyone may join or leave, at any time.
  • This mailing list is announce-only.

International Space Station (ISS) / Hubble Space Telescope (HST) / Chandra X-Ray Observatory Orbital Data via EMAIL

Privacy Policy:

Private list